This demonstration page uses our WeatherBlox Daily Observations layout. Learn more.

Left ArrowRight Arrow

Hourly Observations for May 20, 2020

Temp ( °F °C ) Dew Point ( °F °C ) Humidity (%) Winds ( mph kmh ) Pressure ( in mb ) Visibility ( mi km ) Precip ( " mm )
12:15 am 00:15 Mostly Cloudy 54 12.2 52 11.1 93 93 Calm 29.94 1014 10 16 0.00 0.00
12:52 am 00:52 Cloudy 56 13.3 54 12.2 93 93 Calm 29.93 1013 10 16 0.00 0.00
1:52 am 01:52 Cloudy 57 13.9 54 12.2 90 90 Calm 29.92 1013 10 16 0.00 0.00
2:52 am 02:52 Cloudy 58 14.4 54 12.2 87 87 N 6 9 29.91 1013 10 16 0.00 0.00
3:52 am 03:52 Cloudy 57 13.9 54 12.2 90 90 N 7 11 29.92 1013 10 16 0.00 0.00
4:52 am 04:52 Cloudy 57 13.9 55 12.8 93 93 N 6 9 29.94 1014 10 16 0.00 0.00
5:52 am 05:52 Cloudy 57 13.9 55 12.8 93 93 N 6 9 29.95 1014 10 16 0.00 0.00
6:38 am 06:38 Cloudy 58 14.4 55 12.8 90 90 N 6 9 29.96 1015 10 16 0.00 0.00
6:52 am 06:52 Cloudy 58 14.4 55 12.8 90 90 N 6 9 29.96 1015 10 16 0.00 0.00
7:52 am 07:52 Cloudy 58 14.4 55 12.8 90 90 N 9 15 29.96 1015 10 16 0.00 0.00
8:52 am 08:52 Cloudy 60 15.6 56 13.3 86 86 NNE 9 15 29.97 1015 10 16 0.00 0.00
9:52 am 09:52 Cloudy 61 16.1 57 13.9 87 87 NE 8 13 29.97 1015 10 16 0.00 0.00
10:31 am 10:31 Cloudy 62 16.7 56 13.3 80 80 ENE 10 17 29.96 1015 10 16 0.00 0.00
10:52 am 10:52 Cloudy 63 17.2 57 13.9 81 81 NNE 9 15 29.97 1015 10 16 0.00 0.00
11:01 am 11:01 Cloudy 62 16.7 57 13.9 84 84 NE 10 17 29.97 1015 10 16 0.00 0.00
11:52 am 11:52 Cloudy 64 17.8 58 14.4 81 81 ENE 6 9 29.97 1015 10 16 0.00 0.00
12:17 pm 12:17 Cloudy 65 18.3 57 13.9 76 76 NNE 7 11 29.95 1014 10 16 0.00 0.00
12:52 pm 12:52 Cloudy 66 18.9 57 13.9 73 73 NE 8 13 29.96 1015 10 16 0.00 0.00
1:00 pm 13:00 Cloudy 65 18.3 57 13.9 76 76 NE 9 15 29.95 1014 10 16 0.00 0.00
1:52 pm 13:52 Cloudy 67 19.4 58 14.4 73 73 N 6 9 29.96 1015 10 16 0.00 0.00
2:10 pm 14:10 Cloudy 67 19.4 58 14.4 73 73 VRB 3 6 29.94 1014 10 16 0.00 0.00
2:52 pm 14:52 Cloudy 67 19.4 58 14.4 73 73 NE 7 11 29.94 1014 10 16 0.00 0.00
3:14 pm 15:14 Cloudy 67 19.4 58 14.4 73 73 ENE 7 11 29.93 1013 10 16 0.00 0.00
3:21 pm 15:21 Cloudy 68 20 59 15 73 73 NNE 5 7 29.92 1013 10 16 0.00 0.00
3:52 pm 15:52 Cloudy 69 20.6 58 14.4 68 68 VRB 6 9 29.93 1013 10 16 0.00 0.00
4:52 pm 16:52 Cloudy 68 20 58 14.4 70 70 ENE 8 13 29.92 1013 10 16 0.00 0.00
5:52 pm 17:52 Mostly Cloudy 70 21.1 58 14.4 66 66 E 6 9 29.91 1013 10 16 0.00 0.00
6:52 pm 18:52 Cloudy 69 20.6 57 13.9 66 66 NE 6 9 29.91 1013 10 16 0.00 0.00
7:52 pm 19:52 Cloudy 68 20 57 13.9 68 68 ENE 5 7 29.92 1013 10 16 0.00 0.00
8:52 pm 20:52 Cloudy 67 19.4 58 14.4 73 73 ENE 7 11 29.92 1013 10 16 0.00 0.00
9:49 pm 21:49 Cloudy 66 19 57 14 73 73 E 5 7 29.91 1013 10 16 0.00 0.00
9:52 pm 21:52 Cloudy 66 18.9 58 14.4 75 75 ENE 3 6 29.92 1013 10 16 0.00 0.00
10:10 pm 22:10 Cloudy 66 18.9 58 14.4 75 75 E 6 9 29.92 1013 10 16 0.00 0.00
10:52 pm 22:52 Cloudy 65 18.3 58 14.4 78 78 E 7 11 29.92 1013 10 16 0.00 0.00
11:52 pm 23:52 Clear 63 17.2 58 14.4 84 84 E 8 13 29.91 1013 10 16 0.00 0.00

Powered by AerisWeather